CCA714 RKSS-RKPK

Flight info

Callsign CCA714
Flight time 0h 43m
Altitude 22000
Route OSPOT2Q OSPOT Y782 TGU DCT MASTA KEVOX3
Aircraft B789/H-SDE1E2E3FGHIJ2J3J4J5M1RWXY/LB1D1

Departure

Time 2026-04-30 06:10
Airport Gimpo International Airport (RKSS)

Arrival

Time 2026-04-30 06:53
Airport Gimhae International Airport (RKPK)
Time Latitude Longitude Altitude Speed Heading
2026-04-30 05:59 37.55885 126.80152 62 ft 0 kts 44°
2026-04-30 06:00 37.55883 126.80150 72 ft 2 kts 44°
2026-04-30 06:01 37.55871 126.80135 62 ft 2 kts 46°
2026-04-30 06:01 37.55860 126.80120 62 ft 2 kts 48°
2026-04-30 06:01 37.55849 126.80104 62 ft 2 kts 51°
2026-04-30 06:01 37.55840 126.80087 62 ft 2 kts 57°
2026-04-30 06:02 37.55832 126.80069 62 ft 2 kts 70°
2026-04-30 06:02 37.55830 126.80049 62 ft 2 kts 106°
2026-04-30 06:02 37.55836 126.80034 62 ft 1 kts 131°
2026-04-30 06:02 37.55838 126.80032 62 ft 0 kts 133°
2026-04-30 06:05 37.55811 126.80067 65 ft 10 kts 135°
2026-04-30 06:05 37.55744 126.80150 67 ft 15 kts 135°
2026-04-30 06:05 37.55669 126.80246 63 ft 16 kts 135°
2026-04-30 06:05 37.55597 126.80311 64 ft 10 kts 180°
2026-04-30 06:06 37.55544 126.80271 67 ft 9 kts 222°
2026-04-30 06:06 37.55490 126.80207 65 ft 12 kts 221°
2026-04-30 06:06 37.55420 126.80201 65 ft 10 kts 149°
2026-04-30 06:06 37.55364 126.80269 64 ft 13 kts 133°
2026-04-30 06:07 37.55295 126.80356 66 ft 16 kts 135°
2026-04-30 06:07 37.55215 126.80457 63 ft 19 kts 135°
2026-04-30 06:07 37.55116 126.80582 64 ft 22 kts 135°
2026-04-30 06:07 37.55005 126.80720 66 ft 19 kts 135°
2026-04-30 06:08 37.54931 126.80813 62 ft 12 kts 138°
2026-04-30 06:08 37.54868 126.80810 65 ft 9 kts 219°
2026-04-30 06:08 37.54813 126.80739 59 ft 13 kts 239°
2026-04-30 06:08 37.54824 126.80658 62 ft 8 kts 305°
2026-04-30 06:09 37.54861 126.80606 61 ft 8 kts 316°
2026-04-30 06:09 37.54899 126.80557 60 ft 8 kts 315°
2026-04-30 06:09 37.54988 126.80445 61 ft 42 kts 316°
2026-04-30 06:09 37.55382 126.79952 60 ft 117 kts 315°
2026-04-30 06:10 37.56117 126.79026 178 ft 171 kts 314°
2026-04-30 06:10 37.56886 126.77999 1361 ft 157 kts 309°
2026-04-30 06:10 37.57669 126.76892 2071 ft 181 kts 310°
2026-04-30 06:10 37.58593 126.75656 2613 ft 207 kts 311°
2026-04-30 06:11 37.59652 126.74256 3112 ft 235 kts 312°
2026-04-30 06:11 37.60834 126.72693 3851 ft 251 kts 311°
2026-04-30 06:11 37.61753 126.70823 4798 ft 260 kts 288°
2026-04-30 06:11 37.61928 126.68472 5016 ft 277 kts 257°
2026-04-30 06:12 37.61166 126.66306 6097 ft 269 kts 234°
2026-04-30 06:12 37.59727 126.64790 6981 ft 273 kts 203°
2026-04-30 06:12 37.57948 126.64243 8092 ft 267 kts 179°
2026-04-30 06:12 37.56152 126.64756 9076 ft 266 kts 153°
2026-04-30 06:13 37.54621 126.66117 9977 ft 271 kts 142°
2026-04-30 06:13 37.53105 126.67595 10422 ft 291 kts 142°
2026-04-30 06:13 37.51430 126.69239 10674 ft 318 kts 142°
2026-04-30 06:13 37.49612 126.71029 10950 ft 341 kts 142°
2026-04-30 06:14 37.47738 126.72870 11799 ft 344 kts 143°
2026-04-30 06:14 37.45830 126.74737 12522 ft 352 kts 143°
2026-04-30 06:14 37.43878 126.76650 13388 ft 356 kts 144°
2026-04-30 06:14 37.41915 126.78572 14115 ft 362 kts 144°
2026-04-30 06:15 37.39935 126.80508 14805 ft 366 kts 144°
2026-04-30 06:15 37.37884 126.82513 15509 ft 370 kts 144°
2026-04-30 06:15 37.35837 126.84515 16191 ft 375 kts 144°
2026-04-30 06:15 37.33798 126.86506 16875 ft 378 kts 144°
2026-04-30 06:16 37.31704 126.88549 17537 ft 383 kts 145°
2026-04-30 06:16 37.29593 126.90606 18193 ft 386 kts 145°
2026-04-30 06:16 37.27456 126.92689 18758 ft 390 kts 145°
2026-04-30 06:16 37.25304 126.94784 19307 ft 393 kts 146°
2026-04-30 06:17 37.23137 126.96893 19893 ft 395 kts 146°
2026-04-30 06:17 37.20974 126.98996 20635 ft 393 kts 146°
2026-04-30 06:17 37.18796 127.01112 21254 ft 394 kts 147°
2026-04-30 06:17 37.16632 127.03211 21853 ft 395 kts 147°
2026-04-30 06:18 37.14422 127.05351 21955 ft 405 kts 147°
2026-04-30 06:18 37.12951 127.06778 21953 ft 401 kts 147°
2026-04-30 06:18 37.10016 127.09628 21955 ft 399 kts 147°
2026-04-30 06:18 37.08564 127.11032 21952 ft 399 kts 147°
2026-04-30 06:19 37.06367 127.13154 21958 ft 399 kts 147°
2026-04-30 06:19 37.04170 127.15278 21951 ft 398 kts 147°
2026-04-30 06:19 37.01979 127.17396 21945 ft 398 kts 147°
2026-04-30 06:19 36.99071 127.20202 21938 ft 399 kts 147°
2026-04-30 06:20 36.97581 127.21637 21938 ft 399 kts 147°
2026-04-30 06:20 36.95381 127.23758 21921 ft 399 kts 148°
2026-04-30 06:20 36.93179 127.25878 21942 ft 401 kts 148°
2026-04-30 06:20 36.90968 127.28005 21942 ft 401 kts 148°
2026-04-30 06:21 36.88791 127.30098 21939 ft 400 kts 148°
2026-04-30 06:21 36.86585 127.32218 21951 ft 400 kts 148°
2026-04-30 06:21 36.84381 127.34337 21955 ft 399 kts 147°
2026-04-30 06:21 36.82340 127.36722 21970 ft 404 kts 140°
2026-04-30 06:22 36.80344 127.39196 21975 ft 404 kts 141°
2026-04-30 06:22 36.78326 127.41628 21971 ft 403 kts 141°
2026-04-30 06:22 36.76327 127.44069 21970 ft 403 kts 141°
2026-04-30 06:22 36.74334 127.46538 21975 ft 404 kts 141°
2026-04-30 06:23 36.72335 127.49000 21961 ft 404 kts 141°
2026-04-30 06:23 36.70344 127.51430 21942 ft 405 kts 141°
2026-04-30 06:23 36.68338 127.53879 21942 ft 404 kts 141°
2026-04-30 06:23 36.66327 127.56344 21943 ft 405 kts 141°
2026-04-30 06:24 36.64316 127.58806 21943 ft 404 kts 141°
2026-04-30 06:24 36.62305 127.61262 21942 ft 404 kts 141°
2026-04-30 06:24 36.60303 127.63703 21940 ft 403 kts 141°
2026-04-30 06:24 36.58295 127.66152 21941 ft 404 kts 141°
2026-04-30 06:25 36.56288 127.68599 21943 ft 404 kts 141°
2026-04-30 06:25 36.54271 127.71055 21944 ft 405 kts 141°
2026-04-30 06:25 36.52261 127.73501 21950 ft 405 kts 141°
2026-04-30 06:25 36.50263 127.75929 21953 ft 406 kts 141°
2026-04-30 06:26 36.48247 127.78378 21950 ft 405 kts 141°
2026-04-30 06:26 36.46228 127.80830 21949 ft 405 kts 141°
2026-04-30 06:26 36.44215 127.83272 21955 ft 405 kts 141°
2026-04-30 06:26 36.42201 127.85716 21954 ft 404 kts 141°
2026-04-30 06:27 36.40189 127.88156 21953 ft 405 kts 141°
2026-04-30 06:27 36.38171 127.90600 21955 ft 405 kts 141°
2026-04-30 06:27 36.36155 127.93039 21952 ft 406 kts 141°
2026-04-30 06:27 36.34135 127.95484 21950 ft 406 kts 141°
2026-04-30 06:28 36.32106 127.97936 21959 ft 406 kts 142°
2026-04-30 06:28 36.30079 128.00383 21960 ft 406 kts 142°
2026-04-30 06:28 36.28055 128.02825 21959 ft 406 kts 142°
2026-04-30 06:28 36.26032 128.05265 21958 ft 405 kts 142°
2026-04-30 06:29 36.24013 128.07695 21960 ft 404 kts 142°
2026-04-30 06:29 36.22012 128.10101 21965 ft 406 kts 142°
2026-04-30 06:29 36.19988 128.12535 21962 ft 406 kts 142°
2026-04-30 06:29 36.17963 128.14969 21960 ft 405 kts 142°
2026-04-30 06:30 36.15940 128.17399 21966 ft 405 kts 142°
2026-04-30 06:30 36.13914 128.19829 21947 ft 404 kts 142°
2026-04-30 06:30 36.11888 128.22254 21965 ft 407 kts 142°
2026-04-30 06:30 36.09853 128.24693 21961 ft 406 kts 142°
2026-04-30 06:31 36.07829 128.27118 21964 ft 406 kts 142°
2026-04-30 06:31 36.05822 128.29518 21970 ft 406 kts 142°
2026-04-30 06:31 36.03796 128.31937 21971 ft 405 kts 142°
2026-04-30 06:31 36.01764 128.34365 21970 ft 406 kts 142°
2026-04-30 06:34 35.98220 128.38592 21968 ft 407 kts 142°
2026-04-30 06:34 35.96179 128.41025 21968 ft 407 kts 142°
2026-04-30 06:34 35.94130 128.43465 21968 ft 407 kts 142°
2026-04-30 06:35 35.92092 128.45890 21963 ft 407 kts 142°
2026-04-30 06:35 35.90054 128.48313 21961 ft 407 kts 143°
2026-04-30 06:35 35.88018 128.50732 21961 ft 406 kts 143°
2026-04-30 06:35 35.85982 128.53150 21960 ft 407 kts 143°
2026-04-30 06:36 35.83835 128.55376 21983 ft 399 kts 153°
2026-04-30 06:36 35.81433 128.57033 21989 ft 394 kts 163°
2026-04-30 06:36 35.78863 128.58083 21984 ft 384 kts 173°
2026-04-30 06:36 35.76265 128.58537 21284 ft 373 kts 183°
2026-04-30 06:37 35.73685 128.58410 20682 ft 367 kts 188°
2026-04-30 06:37 35.71139 128.58185 20140 ft 368 kts 188°
2026-04-30 06:37 35.68565 128.57959 19579 ft 372 kts 188°
2026-04-30 06:37 35.65997 128.57724 19003 ft 376 kts 188°
2026-04-30 06:38 35.63367 128.57484 18388 ft 380 kts 187°
2026-04-30 06:38 35.60718 128.57247 17723 ft 381 kts 187°
2026-04-30 06:38 35.58071 128.57011 17073 ft 382 kts 187°
2026-04-30 06:38 35.55415 128.56771 16406 ft 384 kts 187°
2026-04-30 06:39 35.52765 128.56532 15726 ft 378 kts 187°
2026-04-30 06:39 35.50165 128.56302 15080 ft 372 kts 187°
2026-04-30 06:39 35.47593 128.56263 14428 ft 372 kts 176°
2026-04-30 06:39 35.45035 128.56806 13773 ft 374 kts 172°
2026-04-30 06:40 35.42492 128.57418 13087 ft 367 kts 171°
2026-04-30 06:40 35.40003 128.58035 12444 ft 365 kts 171°
2026-04-30 06:40 35.37528 128.58638 11820 ft 359 kts 171°
2026-04-30 06:40 35.35098 128.59220 11223 ft 351 kts 171°
2026-04-30 06:41 35.32754 128.59785 10946 ft 335 kts 171°
2026-04-30 06:41 35.30539 128.60325 10813 ft 314 kts 172°
2026-04-30 06:41 35.28456 128.60830 10688 ft 296 kts 172°
2026-04-30 06:41 35.26518 128.61296 10563 ft 279 kts 172°
2026-04-30 06:42 35.24671 128.61741 10450 ft 264 kts 172°
2026-04-30 06:42 35.22887 128.62169 10326 ft 263 kts 173°
2026-04-30 06:42 35.21068 128.62602 10084 ft 265 kts 172°
2026-04-30 06:42 35.19282 128.63035 9827 ft 262 kts 172°
2026-04-30 06:43 35.17479 128.63469 9558 ft 265 kts 172°
2026-04-30 06:43 35.15672 128.63903 9294 ft 265 kts 172°
2026-04-30 06:43 35.13858 128.64340 9021 ft 265 kts 172°
2026-04-30 06:43 35.12049 128.64776 8762 ft 265 kts 171°
2026-04-30 06:44 35.10345 128.65635 8508 ft 271 kts 147°
2026-04-30 06:44 35.08840 128.66938 8228 ft 261 kts 149°
2026-04-30 06:44 35.07341 128.68123 7977 ft 252 kts 149°
2026-04-30 06:44 35.05912 128.69279 7729 ft 251 kts 148°
2026-04-30 06:45 35.04455 128.70487 7473 ft 253 kts 148°
2026-04-30 06:45 35.02997 128.71694 7223 ft 253 kts 148°
2026-04-30 06:45 35.01582 128.72955 7075 ft 253 kts 136°
2026-04-30 06:45 35.00706 128.74800 7011 ft 255 kts 117°
2026-04-30 06:46 34.99834 128.76723 6668 ft 259 kts 122°
2026-04-30 06:46 34.98927 128.78609 6317 ft 254 kts 121°
2026-04-30 06:46 34.98091 128.80475 5990 ft 249 kts 119°
2026-04-30 06:46 34.97282 128.82332 5652 ft 247 kts 118°
2026-04-30 06:47 34.96767 128.83558 5441 ft 246 kts 113°
2026-04-30 06:47 34.96600 128.86286 4996 ft 240 kts 83°
2026-04-30 06:47 34.96714 128.87626 4792 ft 240 kts 82°
2026-04-30 06:47 34.96900 128.89618 4471 ft 231 kts 82°
2026-04-30 06:48 34.97124 128.92178 4100 ft 227 kts 83°
2026-04-30 06:48 34.97260 128.93455 3894 ft 223 kts 77°
2026-04-30 06:48 34.98011 128.95044 3575 ft 214 kts 44°
2026-04-30 06:48 34.99307 128.95806 3404 ft 211 kts
2026-04-30 06:49 35.00767 128.95869 3162 ft 209 kts 357°
2026-04-30 06:49 35.02208 128.95702 2880 ft 207 kts 355°
2026-04-30 06:49 35.03607 128.95519 2605 ft 196 kts 355°
2026-04-30 06:49 35.04903 128.95352 2351 ft 178 kts 356°
2026-04-30 06:50 35.06077 128.95208 2105 ft 166 kts 356°
2026-04-30 06:50 35.07215 128.95059 1887 ft 166 kts 356°
2026-04-30 06:50 35.08377 128.94916 1663 ft 167 kts 357°
2026-04-30 06:50 35.09508 128.94770 1437 ft 161 kts 357°
2026-04-30 06:51 35.10600 128.94629 1220 ft 157 kts 357°
2026-04-30 06:51 35.11632 128.94501 1010 ft 143 kts 359°
2026-04-30 06:51 35.12614 128.94378 818 ft 140 kts 358°
2026-04-30 06:51 35.13568 128.94251 633 ft 135 kts 359°
2026-04-30 06:52 35.14509 128.94139 451 ft 138 kts 359°
2026-04-30 06:52 35.15482 128.94023 281 ft 141 kts 357°
2026-04-30 06:52 35.16455 128.93897 100 ft 141 kts 354°
2026-04-30 06:52 35.17397 128.93769 32 ft 133 kts 352°
2026-04-30 06:53 35.18002 128.93688 28 ft 53 kts 354°
2026-04-30 06:53 35.18302 128.93654 26 ft 39 kts 358°
2026-04-30 06:53 35.18465 128.93727 28 ft 19 kts 31°
2026-04-30 06:53 35.18573 128.93807 27 ft 17 kts 49°
2026-04-30 06:54 35.18598 128.93935 28 ft 15 kts 84°
2026-04-30 06:54 35.18604 128.94062 29 ft 13 kts 104°
2026-04-30 06:54 35.18521 128.94125 29 ft 18 kts 168°
2026-04-30 06:54 35.18376 128.94144 28 ft 27 kts 175°
2026-04-30 06:55 35.18213 128.94163 28 ft 24 kts 174°
2026-04-30 06:55 35.18048 128.94184 29 ft 24 kts 174°
2026-04-30 06:55 35.17879 128.94206 29 ft 25 kts 175°
2026-04-30 06:55 35.17777 128.94253 29 ft 14 kts 123°
2026-04-30 06:56 35.17732 128.94364 29 ft 15 kts 121°
2026-04-30 06:56 35.17651 128.94425 29 ft 14 kts 168°
2026-04-30 06:56 35.17556 128.94435 29 ft 9 kts 174°
2026-04-30 06:56 35.17491 128.94444 29 ft 6 kts 174°
2026-04-30 06:57 35.17442 128.94455 29 ft 8 kts 157°
2026-04-30 06:57 35.17417 128.94482 29 ft 4 kts 125°
2026-04-30 06:57 35.17403 128.94514 29 ft 5 kts 115°
2026-04-30 06:57 35.17395 128.94535 29 ft 2 kts 115°
2026-04-30 06:58 35.17388 128.94553 29 ft 0 kts 115°
2026-04-30 06:58 35.17387 128.94555 29 ft 0 kts 115°